Index of /20260416/WXO-DD/model_rdps/10km/12/023
Name Last modified Size Description
Parent Directory -
20260416T12Z_MSC_RDPS_AbsoluteVorticity_IsbL-0250_RLatLon0.09_PT023H.grib2 2026-04-16 14:45 609K
20260416T12Z_MSC_RDPS_AbsoluteVorticity_IsbL-0500_RLatLon0.09_PT023H.grib2 2026-04-16 14:45 558K
20260416T12Z_MSC_RDPS_AbsoluteVorticity_IsbL-0700_RLatLon0.09_PT023H.grib2 2026-04-16 14:45 613K
20260416T12Z_MSC_RDPS_AbsoluteVorticity_IsbL-0850_RLatLon0.09_PT023H.grib2 2026-04-16 14:45 784K
20260416T12Z_MSC_RDPS_AirTemp_AGL-120m_RLatLon0.09_PT023H.grib2 2026-04-16 14:45 382K
20260416T12Z_MSC_RDPS_AirTemp_AGL-2m_RLatLon0.09_PT023H.grib2 2026-04-16 14:45 652K
20260416T12Z_MSC_RDPS_AirTemp_AGL-40m_RLatLon0.09_PT023H.grib2 2026-04-16 14:45 416K
20260416T12Z_MSC_RDPS_AirTemp_AGL-80m_RLatLon0.09_PT023H.grib2 2026-04-16 14:45 390K
20260416T12Z_MSC_RDPS_AirTemp_IsbL-0001_RLatLon0.09_PT023H.grib2 2026-04-16 14:45 298K
20260416T12Z_MSC_RDPS_AirTemp_IsbL-0005_RLatLon0.09_PT023H.grib2 2026-04-16 14:45 331K
20260416T12Z_MSC_RDPS_AirTemp_IsbL-0010_RLatLon0.09_PT023H.grib2 2026-04-16 14:45 303K
20260416T12Z_MSC_RDPS_AirTemp_IsbL-0020_RLatLon0.09_PT023H.grib2 2026-04-16 14:45 322K
20260416T12Z_MSC_RDPS_AirTemp_IsbL-0030_RLatLon0.09_PT023H.grib2 2026-04-16 14:45 381K
20260416T12Z_MSC_RDPS_AirTemp_IsbL-0050_RLatLon0.09_PT023H.grib2 2026-04-16 14:45 330K
20260416T12Z_MSC_RDPS_AirTemp_IsbL-0100_RLatLon0.09_PT023H.grib2 2026-04-16 14:45 393K
20260416T12Z_MSC_RDPS_AirTemp_IsbL-0150_RLatLon0.09_PT023H.grib2 2026-04-16 14:45 406K
20260416T12Z_MSC_RDPS_AirTemp_IsbL-0175_RLatLon0.09_PT023H.grib2 2026-04-16 14:45 407K
20260416T12Z_MSC_RDPS_AirTemp_IsbL-0200_RLatLon0.09_PT023H.grib2 2026-04-16 14:45 414K
20260416T12Z_MSC_RDPS_AirTemp_IsbL-0225_RLatLon0.09_PT023H.grib2 2026-04-16 14:45 416K
20260416T12Z_MSC_RDPS_AirTemp_IsbL-0250_RLatLon0.09_PT023H.grib2 2026-04-16 14:45 425K
20260416T12Z_MSC_RDPS_AirTemp_IsbL-0275_RLatLon0.09_PT023H.grib2 2026-04-16 14:45 406K
20260416T12Z_MSC_RDPS_AirTemp_IsbL-0300_RLatLon0.09_PT023H.grib2 2026-04-16 14:45 412K
20260416T12Z_MSC_RDPS_AirTemp_IsbL-0350_RLatLon0.09_PT023H.grib2 2026-04-16 14:45 422K
20260416T12Z_MSC_RDPS_AirTemp_IsbL-0400_RLatLon0.09_PT023H.grib2 2026-04-16 14:45 387K
20260416T12Z_MSC_RDPS_AirTemp_IsbL-0450_RLatLon0.09_PT023H.grib2 2026-04-16 14:45 393K
20260416T12Z_MSC_RDPS_AirTemp_IsbL-0500_RLatLon0.09_PT023H.grib2 2026-04-16 14:45 405K
20260416T12Z_MSC_RDPS_AirTemp_IsbL-0550_RLatLon0.09_PT023H.grib2 2026-04-16 14:45 423K
20260416T12Z_MSC_RDPS_AirTemp_IsbL-0600_RLatLon0.09_PT023H.grib2 2026-04-16 14:45 442K
20260416T12Z_MSC_RDPS_AirTemp_IsbL-0650_RLatLon0.09_PT023H.grib2 2026-04-16 14:45 455K
20260416T12Z_MSC_RDPS_AirTemp_IsbL-0700_RLatLon0.09_PT023H.grib2 2026-04-16 14:45 480K
20260416T12Z_MSC_RDPS_AirTemp_IsbL-0750_RLatLon0.09_PT023H.grib2 2026-04-16 14:45 520K
20260416T12Z_MSC_RDPS_AirTemp_IsbL-0800_RLatLon0.09_PT023H.grib2 2026-04-16 14:45 579K
20260416T12Z_MSC_RDPS_AirTemp_IsbL-0850_RLatLon0.09_PT023H.grib2 2026-04-16 14:45 509K
20260416T12Z_MSC_RDPS_AirTemp_IsbL-0875_RLatLon0.09_PT023H.grib2 2026-04-16 14:45 524K
20260416T12Z_MSC_RDPS_AirTemp_IsbL-0900_RLatLon0.09_PT023H.grib2 2026-04-16 14:45 532K
20260416T12Z_MSC_RDPS_AirTemp_IsbL-0925_RLatLon0.09_PT023H.grib2 2026-04-16 14:45 532K
20260416T12Z_MSC_RDPS_AirTemp_IsbL-0950_RLatLon0.09_PT023H.grib2 2026-04-16 14:45 530K
20260416T12Z_MSC_RDPS_AirTemp_IsbL-0970_RLatLon0.09_PT023H.grib2 2026-04-16 14:45 525K
20260416T12Z_MSC_RDPS_AirTemp_IsbL-0985_RLatLon0.09_PT023H.grib2 2026-04-16 14:45 516K
20260416T12Z_MSC_RDPS_AirTemp_IsbL-1000_RLatLon0.09_PT023H.grib2 2026-04-16 14:45 513K
20260416T12Z_MSC_RDPS_AirTemp_IsbL-1015_RLatLon0.09_PT023H.grib2 2026-04-16 14:45 510K
20260416T12Z_MSC_RDPS_Albedo_Sfc_RLatLon0.09_PT023H.grib2 2026-04-16 14:45 164K
20260416T12Z_MSC_RDPS_CAPE_Sfc_RLatLon0.09_PT023H.grib2 2026-04-16 14:45 1.7M
20260416T12Z_MSC_RDPS_CIN_Sfc_RLatLon0.09_PT023H.grib2 2026-04-16 14:45 1.1M
20260416T12Z_MSC_RDPS_CloudWater_EAtm_RLatLon0.09_PT023H.grib2 2026-04-16 14:45 211K
20260416T12Z_MSC_RDPS_ConvectivePrecip-Accum_Sfc_RLatLon0.09_PT023H.grib2 2026-04-16 14:45 842K
20260416T12Z_MSC_RDPS_DewPointDepression_AGL-2m_RLatLon0.09_PT023H.grib2 2026-04-16 14:45 384K
20260416T12Z_MSC_RDPS_DewPointDepression_IsbL-0001_RLatLon0.09_PT023H.grib2 2026-04-16 14:45 193
20260416T12Z_MSC_RDPS_DewPointDepression_IsbL-0005_RLatLon0.09_PT023H.grib2 2026-04-16 14:45 193
20260416T12Z_MSC_RDPS_DewPointDepression_IsbL-0010_RLatLon0.09_PT023H.grib2 2026-04-16 14:45 193
20260416T12Z_MSC_RDPS_DewPointDepression_IsbL-0020_RLatLon0.09_PT023H.grib2 2026-04-16 14:45 193
20260416T12Z_MSC_RDPS_DewPointDepression_IsbL-0030_RLatLon0.09_PT023H.grib2 2026-04-16 14:45 8.7K
20260416T12Z_MSC_RDPS_DewPointDepression_IsbL-0050_RLatLon0.09_PT023H.grib2 2026-04-16 14:45 106K
20260416T12Z_MSC_RDPS_DewPointDepression_IsbL-0100_RLatLon0.09_PT023H.grib2 2026-04-16 14:45 123K
20260416T12Z_MSC_RDPS_DewPointDepression_IsbL-0150_RLatLon0.09_PT023H.grib2 2026-04-16 14:45 143K
20260416T12Z_MSC_RDPS_DewPointDepression_IsbL-0175_RLatLon0.09_PT023H.grib2 2026-04-16 14:45 174K
20260416T12Z_MSC_RDPS_DewPointDepression_IsbL-0200_RLatLon0.09_PT023H.grib2 2026-04-16 14:45 205K
20260416T12Z_MSC_RDPS_DewPointDepression_IsbL-0225_RLatLon0.09_PT023H.grib2 2026-04-16 14:45 244K
20260416T12Z_MSC_RDPS_DewPointDepression_IsbL-0250_RLatLon0.09_PT023H.grib2 2026-04-16 14:45 294K
20260416T12Z_MSC_RDPS_DewPointDepression_IsbL-0275_RLatLon0.09_PT023H.grib2 2026-04-16 14:45 304K
20260416T12Z_MSC_RDPS_DewPointDepression_IsbL-0300_RLatLon0.09_PT023H.grib2 2026-04-16 14:45 322K
20260416T12Z_MSC_RDPS_DewPointDepression_IsbL-0350_RLatLon0.09_PT023H.grib2 2026-04-16 14:45 325K
20260416T12Z_MSC_RDPS_DewPointDepression_IsbL-0400_RLatLon0.09_PT023H.grib2 2026-04-16 14:45 332K
20260416T12Z_MSC_RDPS_DewPointDepression_IsbL-0450_RLatLon0.09_PT023H.grib2 2026-04-16 14:45 338K
20260416T12Z_MSC_RDPS_DewPointDepression_IsbL-0500_RLatLon0.09_PT023H.grib2 2026-04-16 14:45 343K
20260416T12Z_MSC_RDPS_DewPointDepression_IsbL-0550_RLatLon0.09_PT023H.grib2 2026-04-16 14:45 357K
20260416T12Z_MSC_RDPS_DewPointDepression_IsbL-0600_RLatLon0.09_PT023H.grib2 2026-04-16 14:45 372K
20260416T12Z_MSC_RDPS_DewPointDepression_IsbL-0650_RLatLon0.09_PT023H.grib2 2026-04-16 14:45 379K
20260416T12Z_MSC_RDPS_DewPointDepression_IsbL-0700_RLatLon0.09_PT023H.grib2 2026-04-16 14:45 388K
20260416T12Z_MSC_RDPS_DewPointDepression_IsbL-0750_RLatLon0.09_PT023H.grib2 2026-04-16 14:45 413K
20260416T12Z_MSC_RDPS_DewPointDepression_IsbL-0800_RLatLon0.09_PT023H.grib2 2026-04-16 14:45 447K
20260416T12Z_MSC_RDPS_DewPointDepression_IsbL-0850_RLatLon0.09_PT023H.grib2 2026-04-16 14:45 473K
20260416T12Z_MSC_RDPS_DewPointDepression_IsbL-0875_RLatLon0.09_PT023H.grib2 2026-04-16 14:45 466K
20260416T12Z_MSC_RDPS_DewPointDepression_IsbL-0900_RLatLon0.09_PT023H.grib2 2026-04-16 14:45 458K
20260416T12Z_MSC_RDPS_DewPointDepression_IsbL-0925_RLatLon0.09_PT023H.grib2 2026-04-16 14:45 446K
20260416T12Z_MSC_RDPS_DewPointDepression_IsbL-0950_RLatLon0.09_PT023H.grib2 2026-04-16 14:45 436K
20260416T12Z_MSC_RDPS_DewPointDepression_IsbL-0970_RLatLon0.09_PT023H.grib2 2026-04-16 14:45 431K
20260416T12Z_MSC_RDPS_DewPointDepression_IsbL-0985_RLatLon0.09_PT023H.grib2 2026-04-16 14:45 429K
20260416T12Z_MSC_RDPS_DewPointDepression_IsbL-1000_RLatLon0.09_PT023H.grib2 2026-04-16 14:45 426K
20260416T12Z_MSC_RDPS_DewPointDepression_IsbL-1015_RLatLon0.09_PT023H.grib2 2026-04-16 14:45 419K
20260416T12Z_MSC_RDPS_DewPoint_AGL-2m_RLatLon0.09_PT023H.grib2 2026-04-16 14:45 316K
20260416T12Z_MSC_RDPS_DownwardLongwaveRadiationFlux-Accum_Sfc_RLatLon0.09_PT023H.grib2 2026-04-16 14:45 433K
20260416T12Z_MSC_RDPS_DownwardShortwaveRadiationFlux-Accum_NTAtm_RLatLon0.09_PT023H.grib2 2026-04-16 14:45 149K
20260416T12Z_MSC_RDPS_DownwardShortwaveRadiationFlux-Accum_Sfc_RLatLon0.09_PT023H.grib2 2026-04-16 14:45 616K
20260416T12Z_MSC_RDPS_FreezingRain-Accum1h_Sfc_RLatLon0.09_PT023H.grib2 2026-04-16 14:45 28K
20260416T12Z_MSC_RDPS_FreezingRain-Accum_Sfc_RLatLon0.09_PT023H.grib2 2026-04-16 14:45 99K
20260416T12Z_MSC_RDPS_GeopotentialHeight_IsbL-0001_RLatLon0.09_PT023H.grib2 2026-04-16 14:45 209K
20260416T12Z_MSC_RDPS_GeopotentialHeight_IsbL-0005_RLatLon0.09_PT023H.grib2 2026-04-16 14:45 235K
20260416T12Z_MSC_RDPS_GeopotentialHeight_IsbL-0010_RLatLon0.09_PT023H.grib2 2026-04-16 14:45 309K
20260416T12Z_MSC_RDPS_GeopotentialHeight_IsbL-0020_RLatLon0.09_PT023H.grib2 2026-04-16 14:45 337K
20260416T12Z_MSC_RDPS_GeopotentialHeight_IsbL-0030_RLatLon0.09_PT023H.grib2 2026-04-16 14:45 340K
20260416T12Z_MSC_RDPS_GeopotentialHeight_IsbL-0050_RLatLon0.09_PT023H.grib2 2026-04-16 14:45 239K
20260416T12Z_MSC_RDPS_GeopotentialHeight_IsbL-0100_RLatLon0.09_PT023H.grib2 2026-04-16 14:45 223K
20260416T12Z_MSC_RDPS_GeopotentialHeight_IsbL-0150_RLatLon0.09_PT023H.grib2 2026-04-16 14:45 263K
20260416T12Z_MSC_RDPS_GeopotentialHeight_IsbL-0175_RLatLon0.09_PT023H.grib2 2026-04-16 14:45 265K
20260416T12Z_MSC_RDPS_GeopotentialHeight_IsbL-0200_RLatLon0.09_PT023H.grib2 2026-04-16 14:45 267K
20260416T12Z_MSC_RDPS_GeopotentialHeight_IsbL-0225_RLatLon0.09_PT023H.grib2 2026-04-16 14:45 267K
20260416T12Z_MSC_RDPS_GeopotentialHeight_IsbL-0250_RLatLon0.09_PT023H.grib2 2026-04-16 14:45 269K
20260416T12Z_MSC_RDPS_GeopotentialHeight_IsbL-0275_RLatLon0.09_PT023H.grib2 2026-04-16 14:45 268K
20260416T12Z_MSC_RDPS_GeopotentialHeight_IsbL-0300_RLatLon0.09_PT023H.grib2 2026-04-16 14:45 267K
20260416T12Z_MSC_RDPS_GeopotentialHeight_IsbL-0350_RLatLon0.09_PT023H.grib2 2026-04-16 14:45 232K
20260416T12Z_MSC_RDPS_GeopotentialHeight_IsbL-0400_RLatLon0.09_PT023H.grib2 2026-04-16 14:45 228K
20260416T12Z_MSC_RDPS_GeopotentialHeight_IsbL-0450_RLatLon0.09_PT023H.grib2 2026-04-16 14:45 223K
20260416T12Z_MSC_RDPS_GeopotentialHeight_IsbL-0500_RLatLon0.09_PT023H.grib2 2026-04-16 14:45 290K
20260416T12Z_MSC_RDPS_GeopotentialHeight_IsbL-0550_RLatLon0.09_PT023H.grib2 2026-04-16 14:45 286K
20260416T12Z_MSC_RDPS_GeopotentialHeight_IsbL-0600_RLatLon0.09_PT023H.grib2 2026-04-16 14:45 282K
20260416T12Z_MSC_RDPS_GeopotentialHeight_IsbL-0650_RLatLon0.09_PT023H.grib2 2026-04-16 14:45 281K
20260416T12Z_MSC_RDPS_GeopotentialHeight_IsbL-0700_RLatLon0.09_PT023H.grib2 2026-04-16 14:45 252K
20260416T12Z_MSC_RDPS_GeopotentialHeight_IsbL-0750_RLatLon0.09_PT023H.grib2 2026-04-16 14:45 254K
20260416T12Z_MSC_RDPS_GeopotentialHeight_IsbL-0800_RLatLon0.09_PT023H.grib2 2026-04-16 14:45 261K
20260416T12Z_MSC_RDPS_GeopotentialHeight_IsbL-0850_RLatLon0.09_PT023H.grib2 2026-04-16 14:45 355K
20260416T12Z_MSC_RDPS_GeopotentialHeight_IsbL-0875_RLatLon0.09_PT023H.grib2 2026-04-16 14:45 357K
20260416T12Z_MSC_RDPS_GeopotentialHeight_IsbL-0900_RLatLon0.09_PT023H.grib2 2026-04-16 14:45 362K
20260416T12Z_MSC_RDPS_GeopotentialHeight_IsbL-0925_RLatLon0.09_PT023H.grib2 2026-04-16 14:45 365K
20260416T12Z_MSC_RDPS_GeopotentialHeight_IsbL-0950_RLatLon0.09_PT023H.grib2 2026-04-16 14:45 368K
20260416T12Z_MSC_RDPS_GeopotentialHeight_IsbL-0970_RLatLon0.09_PT023H.grib2 2026-04-16 14:45 372K
20260416T12Z_MSC_RDPS_GeopotentialHeight_IsbL-0985_RLatLon0.09_PT023H.grib2 2026-04-16 14:45 381K
20260416T12Z_MSC_RDPS_GeopotentialHeight_IsbL-1000_RLatLon0.09_PT023H.grib2 2026-04-16 14:45 394K
20260416T12Z_MSC_RDPS_GeopotentialHeight_IsbL-1015_RLatLon0.09_PT023H.grib2 2026-04-16 14:45 409K
20260416T12Z_MSC_RDPS_Humidex_Sfc_RLatLon0.09_PT023H.grib2 2026-04-16 14:45 2.4M
20260416T12Z_MSC_RDPS_IcePellets-Accum1h_Sfc_RLatLon0.09_PT023H.grib2 2026-04-16 14:45 11K
20260416T12Z_MSC_RDPS_IcePellets-Accum_Sfc_RLatLon0.09_PT023H.grib2 2026-04-16 14:45 26K
20260416T12Z_MSC_RDPS_KIndex_Sfc_RLatLon0.09_PT023H.grib2 2026-04-16 14:45 2.3M
20260416T12Z_MSC_RDPS_LatentHeatNetFlux_Sfc_RLatLon0.09_PT023H.grib2 2026-04-16 14:45 395K
20260416T12Z_MSC_RDPS_LiftedIndex-MU-VT_IsbL-0500_RLatLon0.09_PT023H.grib2 2026-04-16 14:45 2.4M
20260416T12Z_MSC_RDPS_NetLongwaveRadiationFlux-Accum_Sfc_RLatLon0.09_PT023H.grib2 2026-04-16 14:45 571K
20260416T12Z_MSC_RDPS_NetShortwaveRadiationFlux-Accum_Sfc_RLatLon0.09_PT023H.grib2 2026-04-16 14:45 618K
20260416T12Z_MSC_RDPS_PlanetaryBoundaryLayerHeight_Sfc_RLatLon0.09_PT023H.grib2 2026-04-16 14:45 1.1M
20260416T12Z_MSC_RDPS_Precip-Accum1h_Sfc_RLatLon0.09_PT023H.grib2 2026-04-16 14:45 1.3M
20260416T12Z_MSC_RDPS_Precip-Accum_Sfc_RLatLon0.09_PT023H.grib2 2026-04-16 14:45 1.8M
20260416T12Z_MSC_RDPS_PrecipRate_Sfc_RLatLon0.09_PT023H.grib2 2026-04-16 14:45 175K
20260416T12Z_MSC_RDPS_PrecipType-Instant_Sfc_RLatLon0.09_PT023H.grib2 2026-04-16 14:45 585K
20260416T12Z_MSC_RDPS_Pressure-Trend3h_Sfc_RLatLon0.09_PT023H.grib2 2026-04-16 14:45 1.2M
20260416T12Z_MSC_RDPS_Pressure_MSL_RLatLon0.09_PT023H.grib2 2026-04-16 14:45 295K
20260416T12Z_MSC_RDPS_Pressure_PVU-1.5_RLatLon0.09_PT023H.grib2 2026-04-16 14:45 2.3M
20260416T12Z_MSC_RDPS_Pressure_PVU-1_RLatLon0.09_PT023H.grib2 2026-04-16 14:45 2.4M
20260416T12Z_MSC_RDPS_Pressure_PVU-2_RLatLon0.09_PT023H.grib2 2026-04-16 14:45 2.2M
20260416T12Z_MSC_RDPS_Pressure_Sfc_RLatLon0.09_PT023H.grib2 2026-04-16 14:45 501K
20260416T12Z_MSC_RDPS_RadiativeTemp_Sfc_RLatLon0.09_PT023H.grib2 2026-04-16 14:45 313K
20260416T12Z_MSC_RDPS_Rain-Accum1h_Sfc_RLatLon0.09_PT023H.grib2 2026-04-16 14:45 613K
20260416T12Z_MSC_RDPS_Rain-Accum_Sfc_RLatLon0.09_PT023H.grib2 2026-04-16 14:45 1.3M
20260416T12Z_MSC_RDPS_RelativeHumidity_AGL-2m_RLatLon0.09_PT023H.grib2 2026-04-16 14:45 1.0M
20260416T12Z_MSC_RDPS_RelativeHumidity_IsbL-0010_RLatLon0.09_PT023H.grib2 2026-04-16 14:45 517K
20260416T12Z_MSC_RDPS_RelativeHumidity_IsbL-0020_RLatLon0.09_PT023H.grib2 2026-04-16 14:45 405K
20260416T12Z_MSC_RDPS_RelativeHumidity_IsbL-0030_RLatLon0.09_PT023H.grib2 2026-04-16 14:45 360K
20260416T12Z_MSC_RDPS_RelativeHumidity_IsbL-0050_RLatLon0.09_PT023H.grib2 2026-04-16 14:45 394K
20260416T12Z_MSC_RDPS_RelativeHumidity_IsbL-0100_RLatLon0.09_PT023H.grib2 2026-04-16 14:45 367K
20260416T12Z_MSC_RDPS_RelativeHumidity_IsbL-0150_RLatLon0.09_PT023H.grib2 2026-04-16 14:45 374K
20260416T12Z_MSC_RDPS_RelativeHumidity_IsbL-0175_RLatLon0.09_PT023H.grib2 2026-04-16 14:45 456K
20260416T12Z_MSC_RDPS_RelativeHumidity_IsbL-0200_RLatLon0.09_PT023H.grib2 2026-04-16 14:45 535K
20260416T12Z_MSC_RDPS_RelativeHumidity_IsbL-0225_RLatLon0.09_PT023H.grib2 2026-04-16 14:45 602K
20260416T12Z_MSC_RDPS_RelativeHumidity_IsbL-0250_RLatLon0.09_PT023H.grib2 2026-04-16 14:45 683K
20260416T12Z_MSC_RDPS_RelativeHumidity_IsbL-0275_RLatLon0.09_PT023H.grib2 2026-04-16 14:45 711K
20260416T12Z_MSC_RDPS_RelativeHumidity_IsbL-0300_RLatLon0.09_PT023H.grib2 2026-04-16 14:45 759K
20260416T12Z_MSC_RDPS_RelativeHumidity_IsbL-0350_RLatLon0.09_PT023H.grib2 2026-04-16 14:45 775K
20260416T12Z_MSC_RDPS_RelativeHumidity_IsbL-0400_RLatLon0.09_PT023H.grib2 2026-04-16 14:45 785K
20260416T12Z_MSC_RDPS_RelativeHumidity_IsbL-0450_RLatLon0.09_PT023H.grib2 2026-04-16 14:45 791K
20260416T12Z_MSC_RDPS_RelativeHumidity_IsbL-0500_RLatLon0.09_PT023H.grib2 2026-04-16 14:45 798K
20260416T12Z_MSC_RDPS_RelativeHumidity_IsbL-0550_RLatLon0.09_PT023H.grib2 2026-04-16 14:45 831K
20260416T12Z_MSC_RDPS_RelativeHumidity_IsbL-0600_RLatLon0.09_PT023H.grib2 2026-04-16 14:45 854K
20260416T12Z_MSC_RDPS_RelativeHumidity_IsbL-0650_RLatLon0.09_PT023H.grib2 2026-04-16 14:45 863K
20260416T12Z_MSC_RDPS_RelativeHumidity_IsbL-0700_RLatLon0.09_PT023H.grib2 2026-04-16 14:45 884K
20260416T12Z_MSC_RDPS_RelativeHumidity_IsbL-0750_RLatLon0.09_PT023H.grib2 2026-04-16 14:45 931K
20260416T12Z_MSC_RDPS_RelativeHumidity_IsbL-0800_RLatLon0.09_PT023H.grib2 2026-04-16 14:45 1.0M
20260416T12Z_MSC_RDPS_RelativeHumidity_IsbL-0850_RLatLon0.09_PT023H.grib2 2026-04-16 14:45 1.0M
20260416T12Z_MSC_RDPS_RelativeHumidity_IsbL-0875_RLatLon0.09_PT023H.grib2 2026-04-16 14:45 1.1M
20260416T12Z_MSC_RDPS_RelativeHumidity_IsbL-0900_RLatLon0.09_PT023H.grib2 2026-04-16 14:45 1.1M
20260416T12Z_MSC_RDPS_RelativeHumidity_IsbL-0925_RLatLon0.09_PT023H.grib2 2026-04-16 14:45 1.1M
20260416T12Z_MSC_RDPS_RelativeHumidity_IsbL-0950_RLatLon0.09_PT023H.grib2 2026-04-16 14:45 1.1M
20260416T12Z_MSC_RDPS_RelativeHumidity_IsbL-0970_RLatLon0.09_PT023H.grib2 2026-04-16 14:45 1.1M
20260416T12Z_MSC_RDPS_RelativeHumidity_IsbL-0985_RLatLon0.09_PT023H.grib2 2026-04-16 14:45 1.0M
20260416T12Z_MSC_RDPS_RelativeHumidity_IsbL-1000_RLatLon0.09_PT023H.grib2 2026-04-16 14:45 1.0M
20260416T12Z_MSC_RDPS_RelativeHumidity_IsbL-1015_RLatLon0.09_PT023H.grib2 2026-04-16 14:45 1.0M
20260416T12Z_MSC_RDPS_Runoff-Accum_Sfc_RLatLon0.09_PT023H.grib2 2026-04-16 14:45 50K
20260416T12Z_MSC_RDPS_SWEATIndex_Sfc_RLatLon0.09_PT023H.grib2 2026-04-16 14:45 2.4M
20260416T12Z_MSC_RDPS_SeeingIndex_EAtm_RLatLon0.09_PT023H.grib2 2026-04-16 14:45 1.0M
20260416T12Z_MSC_RDPS_SensibleHeatNetFlux_Sfc_RLatLon0.09_PT023H.grib2 2026-04-16 14:45 294K
20260416T12Z_MSC_RDPS_ShowalterIndex_IsbL-0500_RLatLon0.09_PT023H.grib2 2026-04-16 14:45 2.6M
20260416T12Z_MSC_RDPS_SkyTransparencyIndex_EAtm_RLatLon0.09_PT023H.grib2 2026-04-16 14:45 724K
20260416T12Z_MSC_RDPS_Snow-Accum1h_Sfc_RLatLon0.09_PT023H.grib2 2026-04-16 14:45 497K
20260416T12Z_MSC_RDPS_Snow-Accum_Sfc_RLatLon0.09_PT023H.grib2 2026-04-16 14:45 755K
20260416T12Z_MSC_RDPS_SnowDensity_Sfc_RLatLon0.09_PT023H.grib2 2026-04-16 14:45 178K
20260416T12Z_MSC_RDPS_SnowDepth_Sfc_RLatLon0.09_PT023H.grib2 2026-04-16 14:45 737K
20260416T12Z_MSC_RDPS_SoilTemp_DBS-0to10cm_RLatLon0.09_PT023H.grib2 2026-04-16 14:45 216K
20260416T12Z_MSC_RDPS_SoilTemp_Sfc_RLatLon0.09_PT023H.grib2 2026-04-16 14:45 268K
20260416T12Z_MSC_RDPS_SoilVolumetricIceContent_Sfc_RLatLon0.09_PT023H.grib2 2026-04-16 14:45 177K
20260416T12Z_MSC_RDPS_SoilVolumetricWaterContent_DBS-0to10cm_RLatLon0.09_PT023H.grib2 2026-04-16 14:45 245K
20260416T12Z_MSC_RDPS_SoilVolumetricWaterContent_DBS-0to1cm_RLatLon0.09_PT023H.grib2 2026-04-16 14:45 333K
20260416T12Z_MSC_RDPS_SpecificHumidity_AGL-120m_RLatLon0.09_PT023H.grib2 2026-04-16 14:45 478K
20260416T12Z_MSC_RDPS_SpecificHumidity_AGL-2m_RLatLon0.09_PT023H.grib2 2026-04-16 14:45 642K
20260416T12Z_MSC_RDPS_SpecificHumidity_AGL-40m_RLatLon0.09_PT023H.grib2 2026-04-16 14:45 483K
20260416T12Z_MSC_RDPS_SpecificHumidity_AGL-80m_RLatLon0.09_PT023H.grib2 2026-04-16 14:45 480K
20260416T12Z_MSC_RDPS_SpecificHumidity_IsbL-0001_RLatLon0.09_PT023H.grib2 2026-04-16 14:45 297K
20260416T12Z_MSC_RDPS_SpecificHumidity_IsbL-0005_RLatLon0.09_PT023H.grib2 2026-04-16 14:45 347K
20260416T12Z_MSC_RDPS_SpecificHumidity_IsbL-0010_RLatLon0.09_PT023H.grib2 2026-04-16 14:45 379K
20260416T12Z_MSC_RDPS_SpecificHumidity_IsbL-0020_RLatLon0.09_PT023H.grib2 2026-04-16 14:45 383K
20260416T12Z_MSC_RDPS_SpecificHumidity_IsbL-0030_RLatLon0.09_PT023H.grib2 2026-04-16 14:45 439K
20260416T12Z_MSC_RDPS_SpecificHumidity_IsbL-0050_RLatLon0.09_PT023H.grib2 2026-04-16 14:45 472K
20260416T12Z_MSC_RDPS_SpecificHumidity_IsbL-0100_RLatLon0.09_PT023H.grib2 2026-04-16 14:45 496K
20260416T12Z_MSC_RDPS_SpecificHumidity_IsbL-0150_RLatLon0.09_PT023H.grib2 2026-04-16 14:45 432K
20260416T12Z_MSC_RDPS_SpecificHumidity_IsbL-0175_RLatLon0.09_PT023H.grib2 2026-04-16 14:45 524K
20260416T12Z_MSC_RDPS_SpecificHumidity_IsbL-0200_RLatLon0.09_PT023H.grib2 2026-04-16 14:45 537K
20260416T12Z_MSC_RDPS_SpecificHumidity_IsbL-0225_RLatLon0.09_PT023H.grib2 2026-04-16 14:45 434K
20260416T12Z_MSC_RDPS_SpecificHumidity_IsbL-0250_RLatLon0.09_PT023H.grib2 2026-04-16 14:45 545K
20260416T12Z_MSC_RDPS_SpecificHumidity_IsbL-0275_RLatLon0.09_PT023H.grib2 2026-04-16 14:45 459K
20260416T12Z_MSC_RDPS_SpecificHumidity_IsbL-0300_RLatLon0.09_PT023H.grib2 2026-04-16 14:45 434K
20260416T12Z_MSC_RDPS_SpecificHumidity_IsbL-0350_RLatLon0.09_PT023H.grib2 2026-04-16 14:45 548K
20260416T12Z_MSC_RDPS_SpecificHumidity_IsbL-0400_RLatLon0.09_PT023H.grib2 2026-04-16 14:45 502K
20260416T12Z_MSC_RDPS_SpecificHumidity_IsbL-0450_RLatLon0.09_PT023H.grib2 2026-04-16 14:45 554K
20260416T12Z_MSC_RDPS_SpecificHumidity_IsbL-0500_RLatLon0.09_PT023H.grib2 2026-04-16 14:45 490K
20260416T12Z_MSC_RDPS_SpecificHumidity_IsbL-0550_RLatLon0.09_PT023H.grib2 2026-04-16 14:45 567K
20260416T12Z_MSC_RDPS_SpecificHumidity_IsbL-0600_RLatLon0.09_PT023H.grib2 2026-04-16 14:45 623K
20260416T12Z_MSC_RDPS_SpecificHumidity_IsbL-0650_RLatLon0.09_PT023H.grib2 2026-04-16 14:45 536K
20260416T12Z_MSC_RDPS_SpecificHumidity_IsbL-0700_RLatLon0.09_PT023H.grib2 2026-04-16 14:45 576K
20260416T12Z_MSC_RDPS_SpecificHumidity_IsbL-0750_RLatLon0.09_PT023H.grib2 2026-04-16 14:45 634K
20260416T12Z_MSC_RDPS_SpecificHumidity_IsbL-0800_RLatLon0.09_PT023H.grib2 2026-04-16 14:45 712K
20260416T12Z_MSC_RDPS_SpecificHumidity_IsbL-0850_RLatLon0.09_PT023H.grib2 2026-04-16 14:45 792K
20260416T12Z_MSC_RDPS_SpecificHumidity_IsbL-0875_RLatLon0.09_PT023H.grib2 2026-04-16 14:45 809K
20260416T12Z_MSC_RDPS_SpecificHumidity_IsbL-0900_RLatLon0.09_PT023H.grib2 2026-04-16 14:45 820K
20260416T12Z_MSC_RDPS_SpecificHumidity_IsbL-0925_RLatLon0.09_PT023H.grib2 2026-04-16 14:45 823K
20260416T12Z_MSC_RDPS_SpecificHumidity_IsbL-0950_RLatLon0.09_PT023H.grib2 2026-04-16 14:45 822K
20260416T12Z_MSC_RDPS_SpecificHumidity_IsbL-0970_RLatLon0.09_PT023H.grib2 2026-04-16 14:45 816K
20260416T12Z_MSC_RDPS_SpecificHumidity_IsbL-0985_RLatLon0.09_PT023H.grib2 2026-04-16 14:45 809K
20260416T12Z_MSC_RDPS_SpecificHumidity_IsbL-1000_RLatLon0.09_PT023H.grib2 2026-04-16 14:45 802K
20260416T12Z_MSC_RDPS_SpecificHumidity_IsbL-1015_RLatLon0.09_PT023H.grib2 2026-04-16 14:45 654K
20260416T12Z_MSC_RDPS_SpecificHumidity_Sfc_RLatLon0.09_PT023H.grib2 2026-04-16 14:45 280K
20260416T12Z_MSC_RDPS_StormRelativeHelicity_EtaL-10000_RLatLon0.09_PT023H.grib2 2026-04-16 14:45 1.1M
20260416T12Z_MSC_RDPS_StormSeverityIndex_EtaL-10000_RLatLon0.09_PT023H.grib2 2026-04-16 14:45 1.2M
20260416T12Z_MSC_RDPS_Thickness_IsbL-0850to0700_RLatLon0.09_PT023H.grib2 2026-04-16 14:45 175K
20260416T12Z_MSC_RDPS_Thickness_IsbL-1000to0500_RLatLon0.09_PT023H.grib2 2026-04-16 14:45 196K
20260416T12Z_MSC_RDPS_Thickness_IsbL-1000to0850_RLatLon0.09_PT023H.grib2 2026-04-16 14:45 262K
20260416T12Z_MSC_RDPS_TotalCloudCover_Sfc_RLatLon0.09_PT023H.grib2 2026-04-16 14:45 677K
20260416T12Z_MSC_RDPS_TotalTotalsIndex_Sfc_RLatLon0.09_PT023H.grib2 2026-04-16 14:45 2.4M
20260416T12Z_MSC_RDPS_UVIndex-ClearSky_Sfc_RLatLon0.09_PT023H.grib2 2026-04-16 14:45 99K
20260416T12Z_MSC_RDPS_UVIndex_Sfc_RLatLon0.09_PT023H.grib2 2026-04-16 14:45 241K
20260416T12Z_MSC_RDPS_UpwardLongwaveRadiationFlux_NTAtm_RLatLon0.09_PT023H.grib2 2026-04-16 14:45 483K
20260416T12Z_MSC_RDPS_UpwardShortwaveRadiationFlux_NTAtm_RLatLon0.09_PT023H.grib2 2026-04-16 14:45 237K
20260416T12Z_MSC_RDPS_VerticalVelocity_IsbL-0250_RLatLon0.09_PT023H.grib2 2026-04-16 14:45 579K
20260416T12Z_MSC_RDPS_VerticalVelocity_IsbL-0500_RLatLon0.09_PT023H.grib2 2026-04-16 14:45 541K
20260416T12Z_MSC_RDPS_VerticalVelocity_IsbL-0700_RLatLon0.09_PT023H.grib2 2026-04-16 14:45 588K
20260416T12Z_MSC_RDPS_VerticalVelocity_IsbL-0850_RLatLon0.09_PT023H.grib2 2026-04-16 14:45 694K
20260416T12Z_MSC_RDPS_VerticalWindShear_EtaL-6500_RLatLon0.09_PT023H.grib2 2026-04-16 14:45 1.2M
20260416T12Z_MSC_RDPS_WindChill_Sfc_RLatLon0.09_PT023H.grib2 2026-04-16 14:45 1.3M
20260416T12Z_MSC_RDPS_WindDir_AGL-10m_RLatLon0.09_PT023H.grib2 2026-04-16 14:45 1.0M
20260416T12Z_MSC_RDPS_WindDir_AGL-120m_RLatLon0.09_PT023H.grib2 2026-04-16 14:45 622K
20260416T12Z_MSC_RDPS_WindDir_AGL-40m_RLatLon0.09_PT023H.grib2 2026-04-16 14:45 663K
20260416T12Z_MSC_RDPS_WindDir_AGL-80m_RLatLon0.09_PT023H.grib2 2026-04-16 14:45 638K
20260416T12Z_MSC_RDPS_WindDir_IsbL-0001_RLatLon0.09_PT023H.grib2 2026-04-16 14:45 261K
20260416T12Z_MSC_RDPS_WindDir_IsbL-0005_RLatLon0.09_PT023H.grib2 2026-04-16 14:45 346K
20260416T12Z_MSC_RDPS_WindDir_IsbL-0010_RLatLon0.09_PT023H.grib2 2026-04-16 14:45 353K
20260416T12Z_MSC_RDPS_WindDir_IsbL-0020_RLatLon0.09_PT023H.grib2 2026-04-16 14:45 379K
20260416T12Z_MSC_RDPS_WindDir_IsbL-0030_RLatLon0.09_PT023H.grib2 2026-04-16 14:45 379K
20260416T12Z_MSC_RDPS_WindDir_IsbL-0050_RLatLon0.09_PT023H.grib2 2026-04-16 14:45 396K
20260416T12Z_MSC_RDPS_WindDir_IsbL-0100_RLatLon0.09_PT023H.grib2 2026-04-16 14:45 387K
20260416T12Z_MSC_RDPS_WindDir_IsbL-0150_RLatLon0.09_PT023H.grib2 2026-04-16 14:45 373K
20260416T12Z_MSC_RDPS_WindDir_IsbL-0175_RLatLon0.09_PT023H.grib2 2026-04-16 14:45 398K
20260416T12Z_MSC_RDPS_WindDir_IsbL-0200_RLatLon0.09_PT023H.grib2 2026-04-16 14:45 417K
20260416T12Z_MSC_RDPS_WindDir_IsbL-0225_RLatLon0.09_PT023H.grib2 2026-04-16 14:45 424K
20260416T12Z_MSC_RDPS_WindDir_IsbL-0250_RLatLon0.09_PT023H.grib2 2026-04-16 14:45 432K
20260416T12Z_MSC_RDPS_WindDir_IsbL-0275_RLatLon0.09_PT023H.grib2 2026-04-16 14:45 454K
20260416T12Z_MSC_RDPS_WindDir_IsbL-0300_RLatLon0.09_PT023H.grib2 2026-04-16 14:45 456K
20260416T12Z_MSC_RDPS_WindDir_IsbL-0350_RLatLon0.09_PT023H.grib2 2026-04-16 14:45 475K
20260416T12Z_MSC_RDPS_WindDir_IsbL-0400_RLatLon0.09_PT023H.grib2 2026-04-16 14:45 496K
20260416T12Z_MSC_RDPS_WindDir_IsbL-0450_RLatLon0.09_PT023H.grib2 2026-04-16 14:45 519K
20260416T12Z_MSC_RDPS_WindDir_IsbL-0500_RLatLon0.09_PT023H.grib2 2026-04-16 14:45 547K
20260416T12Z_MSC_RDPS_WindDir_IsbL-0550_RLatLon0.09_PT023H.grib2 2026-04-16 14:45 569K
20260416T12Z_MSC_RDPS_WindDir_IsbL-0600_RLatLon0.09_PT023H.grib2 2026-04-16 14:45 600K
20260416T12Z_MSC_RDPS_WindDir_IsbL-0650_RLatLon0.09_PT023H.grib2 2026-04-16 14:45 639K
20260416T12Z_MSC_RDPS_WindDir_IsbL-0700_RLatLon0.09_PT023H.grib2 2026-04-16 14:45 686K
20260416T12Z_MSC_RDPS_WindDir_IsbL-0750_RLatLon0.09_PT023H.grib2 2026-04-16 14:45 725K
20260416T12Z_MSC_RDPS_WindDir_IsbL-0800_RLatLon0.09_PT023H.grib2 2026-04-16 14:45 788K
20260416T12Z_MSC_RDPS_WindDir_IsbL-0850_RLatLon0.09_PT023H.grib2 2026-04-16 14:45 864K
20260416T12Z_MSC_RDPS_WindDir_IsbL-0875_RLatLon0.09_PT023H.grib2 2026-04-16 14:45 892K
20260416T12Z_MSC_RDPS_WindDir_IsbL-0900_RLatLon0.09_PT023H.grib2 2026-04-16 14:45 917K
20260416T12Z_MSC_RDPS_WindDir_IsbL-0925_RLatLon0.09_PT023H.grib2 2026-04-16 14:45 928K
20260416T12Z_MSC_RDPS_WindDir_IsbL-0950_RLatLon0.09_PT023H.grib2 2026-04-16 14:45 932K
20260416T12Z_MSC_RDPS_WindDir_IsbL-0970_RLatLon0.09_PT023H.grib2 2026-04-16 14:45 940K
20260416T12Z_MSC_RDPS_WindDir_IsbL-0985_RLatLon0.09_PT023H.grib2 2026-04-16 14:45 953K
20260416T12Z_MSC_RDPS_WindDir_IsbL-1000_RLatLon0.09_PT023H.grib2 2026-04-16 14:45 1.0M
20260416T12Z_MSC_RDPS_WindDir_IsbL-1015_RLatLon0.09_PT023H.grib2 2026-04-16 14:45 1.0M
20260416T12Z_MSC_RDPS_WindGust-Max_AGL-10m_RLatLon0.09_PT023H.grib2 2026-04-16 14:45 1.0M
20260416T12Z_MSC_RDPS_WindGust-Min_AGL-10m_RLatLon0.09_PT023H.grib2 2026-04-16 14:45 1.0M
20260416T12Z_MSC_RDPS_WindGust_AGL-10m_RLatLon0.09_PT023H.grib2 2026-04-16 14:45 1.0M
20260416T12Z_MSC_RDPS_WindSpeed_AGL-10m_RLatLon0.09_PT023H.grib2 2026-04-16 14:45 858K
20260416T12Z_MSC_RDPS_WindSpeed_AGL-120m_RLatLon0.09_PT023H.grib2 2026-04-16 14:45 562K
20260416T12Z_MSC_RDPS_WindSpeed_AGL-40m_RLatLon0.09_PT023H.grib2 2026-04-16 14:45 554K
20260416T12Z_MSC_RDPS_WindSpeed_AGL-80m_RLatLon0.09_PT023H.grib2 2026-04-16 14:45 563K
20260416T12Z_MSC_RDPS_WindSpeed_IsbL-0001_RLatLon0.09_PT023H.grib2 2026-04-16 14:45 293K
20260416T12Z_MSC_RDPS_WindSpeed_IsbL-0005_RLatLon0.09_PT023H.grib2 2026-04-16 14:45 338K
20260416T12Z_MSC_RDPS_WindSpeed_IsbL-0010_RLatLon0.09_PT023H.grib2 2026-04-16 14:45 348K
20260416T12Z_MSC_RDPS_WindSpeed_IsbL-0020_RLatLon0.09_PT023H.grib2 2026-04-16 14:45 369K
20260416T12Z_MSC_RDPS_WindSpeed_IsbL-0030_RLatLon0.09_PT023H.grib2 2026-04-16 14:45 334K
20260416T12Z_MSC_RDPS_WindSpeed_IsbL-0050_RLatLon0.09_PT023H.grib2 2026-04-16 14:45 373K
20260416T12Z_MSC_RDPS_WindSpeed_IsbL-0100_RLatLon0.09_PT023H.grib2 2026-04-16 14:45 489K
20260416T12Z_MSC_RDPS_WindSpeed_IsbL-0150_RLatLon0.09_PT023H.grib2 2026-04-16 14:45 368K
20260416T12Z_MSC_RDPS_WindSpeed_IsbL-0175_RLatLon0.09_PT023H.grib2 2026-04-16 14:45 416K
20260416T12Z_MSC_RDPS_WindSpeed_IsbL-0200_RLatLon0.09_PT023H.grib2 2026-04-16 14:45 432K
20260416T12Z_MSC_RDPS_WindSpeed_IsbL-0225_RLatLon0.09_PT023H.grib2 2026-04-16 14:45 443K
20260416T12Z_MSC_RDPS_WindSpeed_IsbL-0250_RLatLon0.09_PT023H.grib2 2026-04-16 14:45 449K
20260416T12Z_MSC_RDPS_WindSpeed_IsbL-0275_RLatLon0.09_PT023H.grib2 2026-04-16 14:45 466K
20260416T12Z_MSC_RDPS_WindSpeed_IsbL-0300_RLatLon0.09_PT023H.grib2 2026-04-16 14:45 463K
20260416T12Z_MSC_RDPS_WindSpeed_IsbL-0350_RLatLon0.09_PT023H.grib2 2026-04-16 14:45 474K
20260416T12Z_MSC_RDPS_WindSpeed_IsbL-0400_RLatLon0.09_PT023H.grib2 2026-04-16 14:45 459K
20260416T12Z_MSC_RDPS_WindSpeed_IsbL-0450_RLatLon0.09_PT023H.grib2 2026-04-16 14:45 457K
20260416T12Z_MSC_RDPS_WindSpeed_IsbL-0500_RLatLon0.09_PT023H.grib2 2026-04-16 14:45 574K
20260416T12Z_MSC_RDPS_WindSpeed_IsbL-0550_RLatLon0.09_PT023H.grib2 2026-04-16 14:45 578K
20260416T12Z_MSC_RDPS_WindSpeed_IsbL-0600_RLatLon0.09_PT023H.grib2 2026-04-16 14:45 588K
20260416T12Z_MSC_RDPS_WindSpeed_IsbL-0650_RLatLon0.09_PT023H.grib2 2026-04-16 14:45 652K
20260416T12Z_MSC_RDPS_WindSpeed_IsbL-0700_RLatLon0.09_PT023H.grib2 2026-04-16 14:45 675K
20260416T12Z_MSC_RDPS_WindSpeed_IsbL-0750_RLatLon0.09_PT023H.grib2 2026-04-16 14:45 706K
20260416T12Z_MSC_RDPS_WindSpeed_IsbL-0800_RLatLon0.09_PT023H.grib2 2026-04-16 14:45 714K
20260416T12Z_MSC_RDPS_WindSpeed_IsbL-0850_RLatLon0.09_PT023H.grib2 2026-04-16 14:45 774K
20260416T12Z_MSC_RDPS_WindSpeed_IsbL-0875_RLatLon0.09_PT023H.grib2 2026-04-16 14:45 796K
20260416T12Z_MSC_RDPS_WindSpeed_IsbL-0900_RLatLon0.09_PT023H.grib2 2026-04-16 14:45 814K
20260416T12Z_MSC_RDPS_WindSpeed_IsbL-0925_RLatLon0.09_PT023H.grib2 2026-04-16 14:45 827K
20260416T12Z_MSC_RDPS_WindSpeed_IsbL-0950_RLatLon0.09_PT023H.grib2 2026-04-16 14:45 875K
20260416T12Z_MSC_RDPS_WindSpeed_IsbL-0970_RLatLon0.09_PT023H.grib2 2026-04-16 14:45 872K
20260416T12Z_MSC_RDPS_WindSpeed_IsbL-0985_RLatLon0.09_PT023H.grib2 2026-04-16 14:45 865K
20260416T12Z_MSC_RDPS_WindSpeed_IsbL-1000_RLatLon0.09_PT023H.grib2 2026-04-16 14:45 863K
20260416T12Z_MSC_RDPS_WindSpeed_IsbL-1015_RLatLon0.09_PT023H.grib2 2026-04-16 14:45 855K
20260416T12Z_MSC_RDPS_WindU_AGL-10m_RLatLon0.09_PT023H.grib2 2026-04-16 14:45 441K
20260416T12Z_MSC_RDPS_WindU_AGL-120m_RLatLon0.09_PT023H.grib2 2026-04-16 14:45 429K
20260416T12Z_MSC_RDPS_WindU_AGL-40m_RLatLon0.09_PT023H.grib2 2026-04-16 14:45 551K
20260416T12Z_MSC_RDPS_WindU_AGL-80m_RLatLon0.09_PT023H.grib2 2026-04-16 14:45 430K
20260416T12Z_MSC_RDPS_WindU_IsbL-0001_RLatLon0.09_PT023H.grib2 2026-04-16 14:45 264K
20260416T12Z_MSC_RDPS_WindU_IsbL-0005_RLatLon0.09_PT023H.grib2 2026-04-16 14:45 331K
20260416T12Z_MSC_RDPS_WindU_IsbL-0010_RLatLon0.09_PT023H.grib2 2026-04-16 14:45 314K
20260416T12Z_MSC_RDPS_WindU_IsbL-0020_RLatLon0.09_PT023H.grib2 2026-04-16 14:45 257K
20260416T12Z_MSC_RDPS_WindU_IsbL-0030_RLatLon0.09_PT023H.grib2 2026-04-16 14:45 258K
20260416T12Z_MSC_RDPS_WindU_IsbL-0050_RLatLon0.09_PT023H.grib2 2026-04-16 14:45 366K
20260416T12Z_MSC_RDPS_WindU_IsbL-0100_RLatLon0.09_PT023H.grib2 2026-04-16 14:45 345K
20260416T12Z_MSC_RDPS_WindU_IsbL-0150_RLatLon0.09_PT023H.grib2 2026-04-16 14:45 387K
20260416T12Z_MSC_RDPS_WindU_IsbL-0175_RLatLon0.09_PT023H.grib2 2026-04-16 14:45 411K
20260416T12Z_MSC_RDPS_WindU_IsbL-0200_RLatLon0.09_PT023H.grib2 2026-04-16 14:45 427K
20260416T12Z_MSC_RDPS_WindU_IsbL-0225_RLatLon0.09_PT023H.grib2 2026-04-16 14:45 436K
20260416T12Z_MSC_RDPS_WindU_IsbL-0250_RLatLon0.09_PT023H.grib2 2026-04-16 14:45 440K
20260416T12Z_MSC_RDPS_WindU_IsbL-0275_RLatLon0.09_PT023H.grib2 2026-04-16 14:45 356K
20260416T12Z_MSC_RDPS_WindU_IsbL-0300_RLatLon0.09_PT023H.grib2 2026-04-16 14:45 352K
20260416T12Z_MSC_RDPS_WindU_IsbL-0350_RLatLon0.09_PT023H.grib2 2026-04-16 14:45 360K
20260416T12Z_MSC_RDPS_WindU_IsbL-0400_RLatLon0.09_PT023H.grib2 2026-04-16 14:45 464K
20260416T12Z_MSC_RDPS_WindU_IsbL-0450_RLatLon0.09_PT023H.grib2 2026-04-16 14:45 464K
20260416T12Z_MSC_RDPS_WindU_IsbL-0500_RLatLon0.09_PT023H.grib2 2026-04-16 14:45 464K
20260416T12Z_MSC_RDPS_WindU_IsbL-0550_RLatLon0.09_PT023H.grib2 2026-04-16 14:45 467K
20260416T12Z_MSC_RDPS_WindU_IsbL-0600_RLatLon0.09_PT023H.grib2 2026-04-16 14:45 476K
20260416T12Z_MSC_RDPS_WindU_IsbL-0650_RLatLon0.09_PT023H.grib2 2026-04-16 14:45 494K
20260416T12Z_MSC_RDPS_WindU_IsbL-0700_RLatLon0.09_PT023H.grib2 2026-04-16 14:45 513K
20260416T12Z_MSC_RDPS_WindU_IsbL-0750_RLatLon0.09_PT023H.grib2 2026-04-16 14:45 540K
20260416T12Z_MSC_RDPS_WindU_IsbL-0800_RLatLon0.09_PT023H.grib2 2026-04-16 14:45 584K
20260416T12Z_MSC_RDPS_WindU_IsbL-0850_RLatLon0.09_PT023H.grib2 2026-04-16 14:45 636K
20260416T12Z_MSC_RDPS_WindU_IsbL-0875_RLatLon0.09_PT023H.grib2 2026-04-16 14:45 654K
20260416T12Z_MSC_RDPS_WindU_IsbL-0900_RLatLon0.09_PT023H.grib2 2026-04-16 14:45 668K
20260416T12Z_MSC_RDPS_WindU_IsbL-0925_RLatLon0.09_PT023H.grib2 2026-04-16 14:45 677K
20260416T12Z_MSC_RDPS_WindU_IsbL-0950_RLatLon0.09_PT023H.grib2 2026-04-16 14:45 669K
20260416T12Z_MSC_RDPS_WindU_IsbL-0970_RLatLon0.09_PT023H.grib2 2026-04-16 14:45 665K
20260416T12Z_MSC_RDPS_WindU_IsbL-0985_RLatLon0.09_PT023H.grib2 2026-04-16 14:45 663K
20260416T12Z_MSC_RDPS_WindU_IsbL-1000_RLatLon0.09_PT023H.grib2 2026-04-16 14:45 802K
20260416T12Z_MSC_RDPS_WindU_IsbL-1015_RLatLon0.09_PT023H.grib2 2026-04-16 14:45 796K
20260416T12Z_MSC_RDPS_WindV_AGL-10m_RLatLon0.09_PT023H.grib2 2026-04-16 14:45 437K
20260416T12Z_MSC_RDPS_WindV_AGL-120m_RLatLon0.09_PT023H.grib2 2026-04-16 14:45 426K
20260416T12Z_MSC_RDPS_WindV_AGL-40m_RLatLon0.09_PT023H.grib2 2026-04-16 14:45 546K
20260416T12Z_MSC_RDPS_WindV_AGL-80m_RLatLon0.09_PT023H.grib2 2026-04-16 14:45 427K
20260416T12Z_MSC_RDPS_WindV_IsbL-0001_RLatLon0.09_PT023H.grib2 2026-04-16 14:45 249K
20260416T12Z_MSC_RDPS_WindV_IsbL-0005_RLatLon0.09_PT023H.grib2 2026-04-16 14:45 302K
20260416T12Z_MSC_RDPS_WindV_IsbL-0010_RLatLon0.09_PT023H.grib2 2026-04-16 14:45 312K
20260416T12Z_MSC_RDPS_WindV_IsbL-0020_RLatLon0.09_PT023H.grib2 2026-04-16 14:45 361K
20260416T12Z_MSC_RDPS_WindV_IsbL-0030_RLatLon0.09_PT023H.grib2 2026-04-16 14:45 327K
20260416T12Z_MSC_RDPS_WindV_IsbL-0050_RLatLon0.09_PT023H.grib2 2026-04-16 14:45 366K
20260416T12Z_MSC_RDPS_WindV_IsbL-0100_RLatLon0.09_PT023H.grib2 2026-04-16 14:45 435K
20260416T12Z_MSC_RDPS_WindV_IsbL-0150_RLatLon0.09_PT023H.grib2 2026-04-16 14:45 382K
20260416T12Z_MSC_RDPS_WindV_IsbL-0175_RLatLon0.09_PT023H.grib2 2026-04-16 14:45 316K
20260416T12Z_MSC_RDPS_WindV_IsbL-0200_RLatLon0.09_PT023H.grib2 2026-04-16 14:45 330K
20260416T12Z_MSC_RDPS_WindV_IsbL-0225_RLatLon0.09_PT023H.grib2 2026-04-16 14:45 337K
20260416T12Z_MSC_RDPS_WindV_IsbL-0250_RLatLon0.09_PT023H.grib2 2026-04-16 14:45 341K
20260416T12Z_MSC_RDPS_WindV_IsbL-0275_RLatLon0.09_PT023H.grib2 2026-04-16 14:45 354K
20260416T12Z_MSC_RDPS_WindV_IsbL-0300_RLatLon0.09_PT023H.grib2 2026-04-16 14:45 351K
20260416T12Z_MSC_RDPS_WindV_IsbL-0350_RLatLon0.09_PT023H.grib2 2026-04-16 14:45 359K
20260416T12Z_MSC_RDPS_WindV_IsbL-0400_RLatLon0.09_PT023H.grib2 2026-04-16 14:45 359K
20260416T12Z_MSC_RDPS_WindV_IsbL-0450_RLatLon0.09_PT023H.grib2 2026-04-16 14:45 460K
20260416T12Z_MSC_RDPS_WindV_IsbL-0500_RLatLon0.09_PT023H.grib2 2026-04-16 14:45 461K
20260416T12Z_MSC_RDPS_WindV_IsbL-0550_RLatLon0.09_PT023H.grib2 2026-04-16 14:45 463K
20260416T12Z_MSC_RDPS_WindV_IsbL-0600_RLatLon0.09_PT023H.grib2 2026-04-16 14:45 456K
20260416T12Z_MSC_RDPS_WindV_IsbL-0650_RLatLon0.09_PT023H.grib2 2026-04-16 14:45 475K
20260416T12Z_MSC_RDPS_WindV_IsbL-0700_RLatLon0.09_PT023H.grib2 2026-04-16 14:45 496K
20260416T12Z_MSC_RDPS_WindV_IsbL-0750_RLatLon0.09_PT023H.grib2 2026-04-16 14:45 523K
20260416T12Z_MSC_RDPS_WindV_IsbL-0800_RLatLon0.09_PT023H.grib2 2026-04-16 14:45 568K
20260416T12Z_MSC_RDPS_WindV_IsbL-0850_RLatLon0.09_PT023H.grib2 2026-04-16 14:45 622K
20260416T12Z_MSC_RDPS_WindV_IsbL-0875_RLatLon0.09_PT023H.grib2 2026-04-16 14:45 643K
20260416T12Z_MSC_RDPS_WindV_IsbL-0900_RLatLon0.09_PT023H.grib2 2026-04-16 14:45 659K
20260416T12Z_MSC_RDPS_WindV_IsbL-0925_RLatLon0.09_PT023H.grib2 2026-04-16 14:45 667K
20260416T12Z_MSC_RDPS_WindV_IsbL-0950_RLatLon0.09_PT023H.grib2 2026-04-16 14:45 665K
20260416T12Z_MSC_RDPS_WindV_IsbL-0970_RLatLon0.09_PT023H.grib2 2026-04-16 14:45 660K
20260416T12Z_MSC_RDPS_WindV_IsbL-0985_RLatLon0.09_PT023H.grib2 2026-04-16 14:45 798K
20260416T12Z_MSC_RDPS_WindV_IsbL-1000_RLatLon0.09_PT023H.grib2 2026-04-16 14:45 796K
20260416T12Z_MSC_RDPS_WindV_IsbL-1015_RLatLon0.09_PT023H.grib2 2026-04-16 14:45 790K